Location: Mouss�
(47.9236°N, 1.2701°W)
Time: 06:41:56
(UTC+00:00)

Cosmos 44 Rocket - Pass Details

Date: 03 March 2021
Orbit: 636 x 754 km, 65.1° (Epoch: 12 April)

Event Time Altitude Azimuth Distance (km) Brightness Sun altitude
Rises 18:18:52 0° 323° (NW) 3,208 7.2 -5.2°
Reaches altitude 10° 18:21:16 10° 325° (NW) 2,285 6.4 -5.6°
Maximum altitude 18:26:32 75° 50° (NE) 784 3.5 -6.4°
Drops below altitude 10° 18:31:44 10° 137° (SE) 2,260 5.6 -7.3°
Sets 18:34:06 0° 139° (SE) 3,170 6.3 -7.7°
